Port Angeles, WA
on Thursday, January 17, 2013

Thursday
Previous Day Next Day
Daily Summary
 ActualAverageRecord
Temperature
Mean Temperature °F / °C °F / °C  
Max Temperature 41°F / 5°C 46°F / 7°C 56°F / 13°C (1971)
Min Temperature 30°F / -1°C 35°F / 1°C 21°F / -6°C (1950)
Degree Days
Heating Degree Days 30    
Moisture
Dew Point 33°F / 1°C   
Average Humidity 90    
Maximum Humidity 100    
Minimum Humidity 82    
Precipitation
Precipitation 0.00 in / 0.00 cm in / cm in / cm ()
Wind
Wind Speed 5 mph / 8 km/h   
Max Wind Speed 7 mph / 11 km/h   
Max Gust Speed mph / km/h   
Visibility 9 miles / 14 kilometers   
Events     
Averages and records for this station are not official NWS values.
Key: T is trace of precipitation, MM is missing value
Source: NWS Daily Summary
Seasonal Weather Averages
Time(PST)TemperatureDew PointHumidity Pressure Visibility Wind DirectionWind SpeedGust SpeedPrecipitationEvents Conditions
12:53 AM 37.9°F / 3.3°C 34.0°F / 1.1°C 86% 30.55 in / 1034.3 hPa 10.0 miles / 16.1 kilometers ESE 5.8 mph / 9.3 km/h - N/A   Overcast
1:53 AM 37.9°F / 3.3°C 34.0°F / 1.1°C 86% 30.51 in / 1033.2 hPa 10.0 miles / 16.1 kilometers SE 6.9 mph / 11.1 km/h - N/A   Overcast
2:53 AM 37.9°F / 3.3°C 34.0°F / 1.1°C 86% 30.50 in / 1032.8 hPa 10.0 miles / 16.1 kilometers SE 5.8 mph / 9.3 km/h - N/A   Overcast
3:53 AM 37.4°F / 3.0°C 33.8°F / 1.0°C 87% 30.49 in / 1032.4 hPa 10.0 miles / 16.1 kilometers SSE 4.6 mph / 7.4 km/h - N/A   Overcast
4:53 AM 37.0°F / 2.8°C 33.1°F / 0.6°C 86% 30.48 in / 1031.9 hPa 10.0 miles / 16.1 kilometers SSE 5.8 mph / 9.3 km/h - N/A   Overcast
5:53 AM 37.0°F / 2.8°C 33.1°F / 0.6°C 86% 30.46 in / 1031.4 hPa 10.0 miles / 16.1 kilometers SSE 5.8 mph / 9.3 km/h - N/A   Overcast
6:53 AM 37.0°F / 2.8°C 33.1°F / 0.6°C 86% 30.45 in / 1031.1 hPa 10.0 miles / 16.1 kilometers SSE 3.5 mph / 5.6 km/h - N/A   Overcast
7:53 AM 37.0°F / 2.8°C 33.1°F / 0.6°C 86% 30.45 in / 1031.0 hPa 10.0 miles / 16.1 kilometers ESE 3.5 mph / 5.6 km/h - N/A   Overcast
8:53 AM 37.0°F / 2.8°C 34.0°F / 1.1°C 89% 30.46 in / 1031.4 hPa 10.0 miles / 16.1 kilometers South 5.8 mph / 9.3 km/h - N/A   Overcast
9:53 AM 37.9°F / 3.3°C 34.0°F / 1.1°C 86% 30.46 in / 1031.4 hPa 10.0 miles / 16.1 kilometers SSE 6.9 mph / 11.1 km/h - N/A   Overcast
10:53 AM 39.0°F / 3.9°C 35.1°F / 1.7°C 86% 30.45 in / 1031.1 hPa 10.0 miles / 16.1 kilometers SE 3.5 mph / 5.6 km/h - N/A   Overcast
11:53 AM 39.0°F / 3.9°C 35.1°F / 1.7°C 86% 30.42 in / 1030.0 hPa 10.0 miles / 16.1 kilometers ESE 3.5 mph / 5.6 km/h - N/A   Overcast
12:53 PM 39.9°F / 4.4°C 35.1°F / 1.7°C 83% 30.40 in / 1029.3 hPa 10.0 miles / 16.1 kilometers ESE 4.6 mph / 7.4 km/h - N/A   Overcast
1:53 PM 39.9°F / 4.4°C 36.0°F / 2.2°C 86% 30.36 in / 1028.1 hPa 10.0 miles / 16.1 kilometers ESE 4.6 mph / 7.4 km/h - N/A   Overcast
2:11 PM 41.0°F / 5.0°C 36.0°F / 2.2°C 82% 30.33 in / 1027.0 hPa 10.0 miles / 16.1 kilometers Calm Calm - N/A   Scattered Clouds
2:53 PM 39.9°F / 4.4°C 36.0°F / 2.2°C 86% 30.35 in / 1027.5 hPa 10.0 miles / 16.1 kilometers East 3.5 mph / 5.6 km/h - N/A   Clear
3:53 PM 39.0°F / 3.9°C 35.1°F / 1.7°C 86% 30.33 in / 1027.0 hPa 10.0 miles / 16.1 kilometers ESE 5.8 mph / 9.3 km/h - N/A   Clear
4:02 PM 39.0°F / 3.9°C 35.1°F / 1.7°C 86% 30.32 in / 1026.6 hPa 10.0 miles / 16.1 kilometers ESE 3.5 mph / 5.6 km/h - N/A   Scattered Clouds
4:16 PM 37.9°F / 3.3°C 35.1°F / 1.7°C 89% 30.32 in / 1026.6 hPa 10.0 miles / 16.1 kilometers East 4.6 mph / 7.4 km/h - N/A   Mostly Cloudy
4:41 PM 37.0°F / 2.8°C 35.1°F / 1.7°C 93% 30.31 in / 1026.3 hPa 10.0 miles / 16.1 kilometers SE 5.8 mph / 9.3 km/h - N/A   Scattered Clouds
4:53 PM 37.0°F / 2.8°C 34.0°F / 1.1°C 89% 30.33 in / 1026.9 hPa 7.0 miles / 11.3 kilometers Calm Calm - N/A   Clear
5:50 PM 35.6°F / 2.0°C 33.8°F / 1.0°C 93% 30.30 in / 1026.0 hPa 6.0 miles / 9.7 kilometers Calm Calm - N/A   Scattered Clouds
5:53 PM 35.1°F / 1.7°C 33.1°F / 0.6°C 92% 30.31 in / 1026.3 hPa 6.0 miles / 9.7 kilometers Calm Calm - N/A   Partly Cloudy
6:53 PM 34.0°F / 1.1°C 32.0°F / 0.0°C 92% 30.32 in / 1026.6 hPa 5.0 miles / 8.0 kilometers Calm Calm - N/A   Clear
7:53 PM 32.0°F / 0.0°C 32.0°F / 0.0°C 100% 30.32 in / 1026.7 hPa 8.0 miles / 12.9 kilometers Variable 3.5 mph / 5.6 km/h - N/A   Clear
8:53 PM 33.1°F / 0.6°C 32.0°F / 0.0°C 96% 30.31 in / 1026.3 hPa 10.0 miles / 16.1 kilometers Calm Calm - N/A   Clear
9:53 PM 30.9°F / -0.6°C 30.0°F / -1.1°C 96% 30.31 in / 1026.2 hPa 8.0 miles / 12.9 kilometers South 3.5 mph / 5.6 km/h - N/A   Clear
10:53 PM 30.0°F / -1.1°C 28.9°F / -1.7°C 96% 30.29 in / 1025.5 hPa 7.0 miles / 11.3 kilometers North - - N/A   Clear
11:04 PM 30.9°F / -0.6°C 28.9°F / -1.7°C 92% 30.28 in / 1025.3 hPa 7.0 miles / 11.3 kilometers North - - N/A   Scattered Clouds
11:13 PM 30.9°F / -0.6°C 30.0°F / -1.1°C 96% 30.28 in / 1025.3 hPa 7.0 miles / 11.3 kilometers North - - N/A   Mostly Cloudy
11:49 PM 33.8°F / 1.0°C 33.8°F / 1.0°C 100% 30.28 in / 1025.3 hPa 2.0 miles / 3.2 kilometers North - - N/A   Overcast
11:53 PM 34.0°F / 1.1°C 33.1°F / 0.6°C 96% 30.29 in / 1025.5 hPa 2.0 miles / 3.2 kilometers North - - N/A   Overcast
Moon Phase
Jan. 17 Jan. 18 Jan. 26 Feb. 03 Feb. 10
Sunrise:07:57 AM (PST) Moon Rise:10:33 AM (PST)1/17
Sunset:04:51 PM (PST) Moon Set:No Moon Set/

Copyright © 2014 The Weather Underground, Inc.